When you browse on this site, cookies collect data to enhance your experience and personalize the content and advertising you see.
Visit our Privacy Policy to learn more. By continuing to use the site, you agree to this use of cookies and data.
  • Em Portugal
  • Lista de países
  • Para 7 dias
  • Temperatura da água
  • Mapa do tempo
  • Widgets de tempo
  • user-avatar
    Iniciar Sessão

    Previsão horária em Njiva

    Hoje, 29 Janeiro, Quarta-feira

    Tempo Temperatura Precipitação Vento Pressão Humidade
    00:00 +26°C° 0 mm 1 m/s 667 mmHg 61%
    01:00 +24°C° 0 mm 0 m/s 666 mmHg 62%
    02:00 +25°C° 0.3 mm 1 m/s 666 mmHg 66%
    03:00 +24°C° 0.3 mm 1 m/s 666 mmHg 70%
    04:00 +23°C° 0.3 mm 1 m/s 666 mmHg 74%
    05:00 +24°C° 0.2 mm 1 m/s 666 mmHg 74%
    06:00 +22°C° 0.2 mm 0 m/s 667 mmHg 73%
    07:00 +23°C° 0.2 mm 0 m/s 667 mmHg 72%
    08:00 +27°C° 0 mm 1 m/s 668 mmHg 64%
    09:00 +29°C° 0 mm 1 m/s 668 mmHg 56%
    10:00 +31°C° 0 mm 2 m/s 669 mmHg 48%
    11:00 +32°C° 0 mm 2 m/s 668 mmHg 43%
    12:00 +34°C° 0 mm 3 m/s 668 mmHg 38%
    13:00 +36°C° 0 mm 4 m/s 667 mmHg 33%
    14:00 +35°C° 0 mm 3 m/s 667 mmHg 33%
    15:00 +35°C° 0 mm 3 m/s 667 mmHg 33%
    16:00 +35°C° 0 mm 2 m/s 666 mmHg 34%
    17:00 +32°C° 0 mm 2 m/s 666 mmHg 37%
    18:00 +31°C° 0 mm 1 m/s 666 mmHg 41%
    19:00 +29°C° 0 mm 1 m/s 666 mmHg 45%
    20:00 +28°C° 0.2 mm 1 m/s 666 mmHg 50%
    21:00 +27°C° 0.2 mm 2 m/s 666 mmHg 55%
    22:00 +26°C° 0.2 mm 2 m/s 667 mmHg 61%
    23:00 +25°C° 0.3 mm 2 m/s 667 mmHg 64%

    Amanhã, 30 Janeiro, Quinta-feira

    Tempo Temperatura Precipitação Vento Pressão Humidade
    00:00 +25°C° 0.3 mm 2 m/s 667 mmHg 67%
    01:00 +24°C° 0.3 mm 2 m/s 667 mmHg 70%
    02:00 +23°C° 0.3 mm 1 m/s 666 mmHg 73%
    03:00 +23°C° 0.3 mm 1 m/s 666 mmHg 76%
    04:00 +23°C° 0.3 mm 1 m/s 666 mmHg 78%
    05:00 +23°C° 0 mm 1 m/s 666 mmHg 77%
    06:00 +23°C° 0 mm 1 m/s 667 mmHg 75%
    07:00 +24°C° 0 mm 1 m/s 668 mmHg 74%
    08:00 +26°C° 0.1 mm 1 m/s 668 mmHg 65%
    09:00 +29°C° 0.1 mm 1 m/s 668 mmHg 56%
    10:00 +31°C° 0.1 mm 1 m/s 669 mmHg 48%
    11:00 +32°C° 0 mm 2 m/s 669 mmHg 42%
    12:00 +35°C° 0 mm 3 m/s 668 mmHg 36%
    13:00 +36°C° 0 mm 4 m/s 668 mmHg 30%
    14:00 +36°C° 0 mm 4 m/s 667 mmHg 31%
    15:00 +35°C° 0 mm 4 m/s 667 mmHg 32%
    16:00 +35°C° 0 mm 4 m/s 666 mmHg 33%
    17:00 +33°C° 0 mm 3 m/s 666 mmHg 37%
    18:00 +31°C° 0 mm 2 m/s 666 mmHg 41%
    19:00 +29°C° 0 mm 1 m/s 666 mmHg 45%
    20:00 +28°C° 0 mm 1 m/s 666 mmHg 50%
    21:00 +27°C° 0 mm 1 m/s 667 mmHg 55%
    22:00 +26°C° 0 mm 1 m/s 667 mmHg 60%
    23:00 +25°C° 0.6 mm 2 m/s 667 mmHg 65%

    Depois de amanhã, 31 Janeiro, Sexta-feira

    Tempo Temperatura Precipitação Vento Pressão Humidade
    00:00 +24°C° 0.6 mm 2 m/s 667 mmHg 70%
    01:00 +23°C° 0.6 mm 2 m/s 667 mmHg 76%
    02:00 +23°C° 0.1 mm 2 m/s 667 mmHg 78%
    03:00 +23°C° 0.1 mm 1 m/s 666 mmHg 80%
    04:00 +22°C° 0.1 mm 1 m/s 666 mmHg 82%
    05:00 +23°C° 0.1 mm 1 m/s 667 mmHg 80%
    06:00 +23°C° 0.1 mm 1 m/s 667 mmHg 79%
    07:00 +23°C° 0.1 mm 1 m/s 668 mmHg 77%
    08:00 +26°C° 0 mm 1 m/s 668 mmHg 68%
    09:00 +28°C° 0 mm 1 m/s 669 mmHg 58%
    10:00 +30°C° 0 mm 1 m/s 669 mmHg 48%
    11:00 +31°C° 0 mm 1 m/s 669 mmHg 45%
    12:00 +32°C° 0 mm 2 m/s 668 mmHg 41%
    13:00 +34°C° 0 mm 3 m/s 667 mmHg 38%
    14:00 +33°C° 0.1 mm 3 m/s 667 mmHg 41%
    15:00 +31°C° 0.1 mm 3 m/s 666 mmHg 43%
    16:00 +30°C° 0.1 mm 3 m/s 665 mmHg 46%
    17:00 +29°C° 0.2 mm 2 m/s 665 mmHg 49%
    18:00 +28°C° 0.2 mm 1 m/s 665 mmHg 51%
    19:00 +25°C° 0.2 mm 0 m/s 665 mmHg 54%
    20:00 +26°C° 0 mm 1 m/s 666 mmHg 56%
    21:00 +26°C° 0 mm 1 m/s 666 mmHg 58%
    22:00 +25°C° 0 mm 1 m/s 667 mmHg 60%
    23:00 +24°C° 0 mm 1 m/s 667 mmHg 66%

    1 Fevereiro, Sábado

    Tempo Temperatura Precipitação Vento Pressão Humidade
    00:00 +24°C° 0 mm 2 m/s 666 mmHg 71%
    01:00 +22°C° 0 mm 3 m/s 666 mmHg 76%
    02:00 +23°C° 0 mm 2 m/s 666 mmHg 76%
    03:00 +21°C° 0 mm 2 m/s 666 mmHg 76%
    04:00 +22°C° 0 mm 1 m/s 666 mmHg 75%
    05:00 +23°C° 0 mm 1 m/s 666 mmHg 72%
    06:00 +23°C° 0 mm 1 m/s 667 mmHg 69%
    07:00 +24°C° 0 mm 1 m/s 667 mmHg 67%
    08:00 +26°C° 0 mm 1 m/s 668 mmHg 58%
    09:00 +29°C° 0 mm 1 m/s 668 mmHg 49%
    10:00 +32°C° 0 mm 1 m/s 668 mmHg 40%
    11:00 +32°C° 0 mm 1 m/s 668 mmHg 38%
    12:00 +33°C° 0 mm 1 m/s 667 mmHg 36%
    13:00 +34°C° 0 mm 1 m/s 667 mmHg 34%
    14:00 +32°C° 0 mm 2 m/s 666 mmHg 39%
    15:00 +31°C° 0 mm 2 m/s 665 mmHg 43%
    16:00 +30°C° 0 mm 2 m/s 664 mmHg 47%
    17:00 +29°C° 0 mm 2 m/s 665 mmHg 49%
    18:00 +28°C° 0 mm 2 m/s 665 mmHg 51%
    19:00 +27°C° 0 mm 2 m/s 665 mmHg 53%
    20:00 +27°C° 0 mm 1 m/s 666 mmHg 53%
    21:00 +26°C° 0 mm 1 m/s 666 mmHg 53%
    22:00 +26°C° 0 mm 1 m/s 667 mmHg 53%
    23:00 +25°C° 0 mm 1 m/s 666 mmHg 58%

    2 Fevereiro, Domingo

    Tempo Temperatura Precipitação Vento Pressão Humidade
    00:00 +24°C° 0 mm 2 m/s 666 mmHg 64%
    01:00 +24°C° 0 mm 2 m/s 666 mmHg 69%
    02:00 +23°C° 0 mm 2 m/s 666 mmHg 70%
    03:00 +23°C° 0 mm 2 m/s 666 mmHg 72%
    04:00 +23°C° 0 mm 2 m/s 666 mmHg 74%
    05:00 +23°C° 0 mm 2 m/s 666 mmHg 70%
    06:00 +23°C° 0 mm 2 m/s 666 mmHg 67%
    07:00 +24°C° 0 mm 2 m/s 667 mmHg 63%
    08:00 +27°C° 0 mm 2 m/s 667 mmHg 54%
    09:00 +29°C° 0 mm 1 m/s 668 mmHg 45%
    10:00 +32°C° 0 mm 1 m/s 668 mmHg 35%
    11:00 +34°C° 0 mm 2 m/s 668 mmHg 33%
    12:00 +35°C° 0 mm 2 m/s 668 mmHg 30%
    13:00 +36°C° 0 mm 3 m/s 667 mmHg 28%
    14:00 +36°C° 0 mm 2 m/s 666 mmHg 29%
    15:00 +36°C° 0 mm 2 m/s 666 mmHg 29%
    16:00 +35°C° 0 mm 2 m/s 665 mmHg 29%
    17:00 +34°C° 0 mm 2 m/s 665 mmHg 33%
    18:00 +31°C° 0 mm 2 m/s 666 mmHg 36%
    19:00 +30°C° 0 mm 1 m/s 666 mmHg 39%
    20:00 +29°C° 0 mm 2 m/s 666 mmHg 44%
    21:00 +27°C° 0 mm 3 m/s 666 mmHg 49%
    22:00 +26°C° 0 mm 3 m/s 667 mmHg 53%
    23:00 +26°C° 0 mm 4 m/s 667 mmHg 57%

    3 Fevereiro, Segunda-feira

    Tempo Temperatura Precipitação Vento Pressão Humidade
    00:00 +25°C° 0 mm 4 m/s 666 mmHg 61%
    01:00 +25°C° 0 mm 4 m/s 666 mmHg 65%
    02:00 +23°C° 0 mm 4 m/s 666 mmHg 66%
    03:00 +22°C° 0 mm 3 m/s 666 mmHg 66%
    04:00 +22°C° 0 mm 3 m/s 665 mmHg 67%
    05:00 +23°C° 0 mm 2 m/s 666 mmHg 65%
    06:00 +23°C° 0 mm 2 m/s 666 mmHg 62%
    07:00 +24°C° 0 mm 1 m/s 667 mmHg 60%
    08:00 +27°C° 0 mm 1 m/s 667 mmHg 52%
    09:00 +30°C° 0 mm 1 m/s 668 mmHg 44%
    10:00 +33°C° 0 mm 1 m/s 668 mmHg 35%
    11:00 +35°C° 0 mm 2 m/s 668 mmHg 31%
    12:00 +36°C° 0 mm 3 m/s 667 mmHg 27%
    13:00 +37°C° 0 mm 4 m/s 667 mmHg 23%
    14:00 +37°C° 0 mm 4 m/s 666 mmHg 24%
    15:00 +36°C° 0 mm 4 m/s 665 mmHg 24%
    16:00 +36°C° 0 mm 3 m/s 665 mmHg 25%
    17:00 +34°C° 0 mm 3 m/s 665 mmHg 29%
    18:00 +32°C° 0 mm 2 m/s 664 mmHg 33%
    19:00 +30°C° 0 mm 1 m/s 664 mmHg 38%
    20:00 +29°C° 0 mm 1 m/s 665 mmHg 40%
    21:00 +28°C° 0 mm 1 m/s 665 mmHg 43%
    22:00 +27°C° 0 mm 1 m/s 665 mmHg 45%
    23:00 +27°C° 0 mm 1 m/s 665 mmHg 48%
    Mostrar mais